Santa Fe, NM

8:08 AM MDT on June 25, 2018 (GMT -0600)
Santa Fe Municipal

Weather History for KSAF - October, 2017

Change the Weather History Date:

Thursday, October 12, 2017

  Actual Average Record
Temperature  
Mean Temperature 58 °F -  
Max Temperature 73 °F 77 °F 81 °F (2007)
Min Temperature 42 °F 33 °F 28 °F (1997)
Degree Days  
Heating Degree Days 8    
Growing Degree Days 8 (Base 50)    
Moisture  
Dew Point 42 °F    
Average Humidity 59    
Maximum Humidity 89    
Minimum Humidity 33    
Precipitation  
Precipitation 0.00 in - - ()
Sea Level Pressure  
Sea Level Pressure 29.98 in    
Wind  
Wind Speed 6 mph (NNW)    
Max Wind Speed 14 mph    
Max Gust Speed 22 mph    
Visibility 10 miles    
Events      
Averages and records for this station are not official NWS values.
T = Trace of Precipitation, MM = Missing Value Source: NWS Daily Summary

Daily Weather History Graph

Daily Weather History Graph

Search for Another Location

Airport or City:

Astronomy

Oct. 12, 2017 Rise Set
Actual Time 7:08 AM MDT 6:32 PM MDT
Civil Twilight 6:42 AM MDT 6:57 PM MDT
Nautical Twilight 6:13 AM MDT 7:27 PM MDT
Astronomical Twilight 5:43 AM MDT 7:57 PM MDT
Moon No Moon Rise 2:14 PM MDT (10/12)
Length of Visible Light 12h 15m
Length of Day
11h 23m
Waning Gibbous, 48% of the Moon is Illuminated
Oct 12
Waning Gibbous
Oct 19
New
Oct 27
First Quarter
Nov 3
Full
Nov 10
Last Quarter

Hourly Weather History & Observations

Time (MDT) Temp. Windchill Dew Point Humidity Pressure Visibility Wind Dir Wind Speed Gust Speed Precip Events Conditions
12:53 AM 42.1 °F 38.4 °F 35.1 °F 76% 30.02 in 10.0 mi NNW 5.8 mph - N/A   Clear
1:53 AM 43.0 °F 38.8 °F 35.1 °F 74% 30.01 in 10.0 mi North 6.9 mph - N/A   Clear
2:53 AM 43.0 °F 38.2 °F 35.1 °F 74% 30.00 in 10.0 mi NE 8.1 mph - N/A   Clear
3:53 AM 43.0 °F 41.3 °F 37.0 °F 80% 29.99 in 10.0 mi North 3.5 mph - N/A   Clear
4:53 AM 42.1 °F - 37.9 °F 85% 30.00 in 10.0 mi Calm Calm - N/A   Clear
5:53 AM 46.0 °F 44.8 °F 39.9 °F 79% 30.00 in 10.0 mi North 3.5 mph - N/A   Clear
6:53 AM 43.0 °F 39.5 °F 39.9 °F 89% 30.02 in 10.0 mi NNE 5.8 mph - N/A   Clear
7:53 AM 48.9 °F - 43.0 °F 80% 30.04 in 10.0 mi NE 6.9 mph - N/A   Clear
8:53 AM 55.9 °F - 45.0 °F 67% 30.04 in 10.0 mi SE 3.5 mph - N/A   Clear
9:53 AM 61.0 °F - 44.1 °F 54% 30.04 in 10.0 mi Calm Calm - N/A   Clear
10:39 AM 64.0 °F - 42.1 °F 45% 30.22 in 1.5 mi Variable 5.8 mph - N/A   Haze
10:53 AM 64.9 °F - 43.0 °F 45% 30.01 in 10.0 mi SW 8.1 mph - N/A   Mostly Cloudy
11:53 AM 66.9 °F - 42.1 °F 40% 30.01 in 10.0 mi West 11.5 mph - N/A   Clear
12:53 PM 70.0 °F - 44.1 °F 39% 29.99 in 10.0 mi WSW 13.8 mph 21.9 mph N/A   Clear
1:53 PM 72.0 °F - 44.1 °F 37% 29.94 in 10.0 mi SSW 8.1 mph 16.1 mph N/A   Clear
2:53 PM 73.0 °F - 42.1 °F 33% 29.91 in 10.0 mi SW 9.2 mph 20.7 mph N/A   Clear
3:53 PM 73.0 °F - 42.1 °F 33% 29.91 in 10.0 mi SW 10.4 mph 17.3 mph N/A   Clear
4:53 PM 73.0 °F - 42.1 °F 33% 29.90 in 10.0 mi West 9.2 mph 16.1 mph N/A   Clear
5:53 PM 71.1 °F - 42.1 °F 35% 29.88 in 10.0 mi SW 6.9 mph - N/A   Clear
6:53 PM 66.9 °F - 43.0 °F 42% 29.92 in 10.0 mi Calm Calm - N/A   Clear
7:53 PM 60.1 °F - 44.1 °F 55% 29.94 in 10.0 mi North 4.6 mph - N/A   Clear
8:53 PM 54.0 °F - 46.0 °F 75% 29.95 in 10.0 mi North 8.1 mph - N/A   Partly Cloudy
9:53 PM 55.9 °F - 45.0 °F 67% 29.93 in 10.0 mi NE 8.1 mph - N/A   Partly Cloudy
10:53 PM 53.1 °F - 45.0 °F 74% 29.95 in 10.0 mi North 5.8 mph - N/A   Scattered Clouds
11:53 PM 53.1 °F - 45.0 °F 74% 29.95 in 10.0 mi East 6.9 mph - N/A   Clear